sat.trackr.live / text

‹ back to catalog

KUIPER-00220

NORAD 67781 · 2026-030T

PAYLOAD ACTIVE UNKNOWN

§ Identity

Operator
Country
US
Launch date
2026-02-12
Launch site
FRGUI
Launch vehicle
Mass (kg)
RCS (m²)

External: N2YO · Heavens-Above · Gunter

§ Orbital elements

Epoch: 2026-09-20T13:03:44.178048Z

Period
97.30 min
Inclination
51.8955°
Eccentricity
0.0000681
Mean motion
14.79930366 rev/d
Perigee alt
629.1 km
Apogee alt
630.0 km
Semi-major
7,007.7 km
B*
1.2748e-4
RAAN
38.9592°
Arg perigee
118.2681°
Mean anomaly
241.8350°
Rev number
3,448

§ Raw data

KUIPER-002201 67781U 26030T   26263.54426132  .00000751  00000+0  12748-3 0  99932 67781  51.8955  38.9592 0000681 118.2681 241.8350 14.79930366 34482

JSON: /api/v1/satellites/67781 · /tle

For live sub-satellite position, see the globe view (requires WebGL).

§ Visibility from observer

Set your observer location to see the next 7 days of passes ≥ 10°. The values pass through the URL so the page stays shareable.

No JS? Fill the form by hand. The geolocation button needs JavaScript.